When you browse on this site, cookies collect data to enhance your experience and personalize the content and advertising you see.
Visit our Privacy Policy to learn more. By continuing to use the site, you agree to this use of cookies and data.
EN

Hourly Weather Majkop

Today, 12 July, Sunday

Time Temperature Precipitation Wind Pressure Humidity
00:00 +20°C° 0 mm 2 mps 730 mmHg 75%
01:00 +21°C° 0 mm 1 mps 730 mmHg 77%
02:00 +21°C° 0 mm 1 mps 730 mmHg 79%
03:00 +20°C° 0 mm 1 mps 729 mmHg 79%
04:00 +21°C° 0 mm 1 mps 729 mmHg 79%
05:00 +21°C° 0 mm 1 mps 729 mmHg 79%
06:00 +21°C° 0 mm 1 mps 729 mmHg 80%
07:00 +24°C° 0 mm 2 mps 729 mmHg 70%
08:00 +27°C° 0 mm 2 mps 729 mmHg 60%
09:00 +30°C° 0 mm 3 mps 729 mmHg 49%
10:00 +31°C° 0.1 mm 3 mps 729 mmHg 46%
11:00 +33°C° 0.1 mm 4 mps 729 mmHg 43%
12:00 +34°C° 0.1 mm 4 mps 729 mmHg 40%
13:00 +34°C° 0.5 mm 4 mps 728 mmHg 42%
14:00 +34°C° 0.5 mm 4 mps 728 mmHg 43%
15:00 +34°C° 0.5 mm 4 mps 728 mmHg 44%
16:00 +33°C° 0.4 mm 3 mps 727 mmHg 50%
17:00 +31°C° 0.4 mm 2 mps 727 mmHg 57%
18:00 +30°C° 0.4 mm 2 mps 727 mmHg 63%
19:00 +28°C° 0 mm 2 mps 726 mmHg 67%
20:00 +26°C° 0 mm 2 mps 726 mmHg 71%
21:00 +24°C° 0 mm 1 mps 726 mmHg 75%
22:00 +24°C° 0 mm 1 mps 726 mmHg 76%
23:00 +23°C° 0 mm 1 mps 726 mmHg 77%

Tomorrow, 13 July, Monday

Time Temperature Precipitation Wind Pressure Humidity
00:00 +22°C° 0 mm 1 mps 725 mmHg 78%
01:00 +22°C° 0.5 mm 1 mps 725 mmHg 81%
02:00 +21°C° 0.5 mm 1 mps 725 mmHg 84%
03:00 +21°C° 0.5 mm 1 mps 725 mmHg 87%
04:00 +21°C° 0.8 mm 1 mps 725 mmHg 89%
05:00 +21°C° 0.8 mm 1 mps 725 mmHg 90%
06:00 +21°C° 0.8 mm 1 mps 724 mmHg 92%
07:00 +23°C° 0.3 mm 1 mps 725 mmHg 87%
08:00 +25°C° 0.3 mm 1 mps 725 mmHg 82%
09:00 +25°C° 0.3 mm 0 mps 725 mmHg 77%
10:00 +28°C° 0.9 mm 1 mps 725 mmHg 73%
11:00 +28°C° 0.9 mm 1 mps 725 mmHg 68%
12:00 +29°C° 0.9 mm 2 mps 725 mmHg 63%
13:00 +29°C° 0.5 mm 2 mps 725 mmHg 63%
14:00 +29°C° 0.5 mm 2 mps 725 mmHg 63%
15:00 +29°C° 0.5 mm 2 mps 725 mmHg 63%
16:00 +28°C° 0.6 mm 2 mps 725 mmHg 68%
17:00 +27°C° 0.6 mm 2 mps 725 mmHg 73%
18:00 +26°C° 0.6 mm 2 mps 725 mmHg 78%
19:00 +25°C° 0.6 mm 2 mps 725 mmHg 82%
20:00 +23°C° 0.6 mm 2 mps 725 mmHg 86%
21:00 +21°C° 0.6 mm 2 mps 725 mmHg 90%
22:00 +20°C° 0.2 mm 2 mps 725 mmHg 90%
23:00 +20°C° 0.2 mm 2 mps 725 mmHg 91%

Day after tomorrow, 14 July, Tuesday

Time Temperature Precipitation Wind Pressure Humidity
00:00 +20°C° 0.2 mm 2 mps 725 mmHg 91%
01:00 +19°C° 0.5 mm 2 mps 725 mmHg 92%
02:00 +19°C° 0.5 mm 2 mps 725 mmHg 92%
03:00 +19°C° 0.5 mm 2 mps 726 mmHg 93%
04:00 +19°C° 1.4 mm 2 mps 726 mmHg 93%
05:00 +19°C° 1.4 mm 2 mps 726 mmHg 93%
06:00 +19°C° 1.4 mm 2 mps 726 mmHg 94%
07:00 +21°C° 1.1 mm 1 mps 727 mmHg 92%
08:00 +23°C° 1.1 mm 1 mps 727 mmHg 89%
09:00 +24°C° 1.1 mm 1 mps 728 mmHg 87%
10:00 +25°C° 0.4 mm 1 mps 728 mmHg 78%
11:00 +27°C° 0.4 mm 2 mps 728 mmHg 69%
12:00 +29°C° 0.4 mm 3 mps 728 mmHg 59%
13:00 +29°C° 0.2 mm 3 mps 729 mmHg 56%
14:00 +29°C° 0.2 mm 3 mps 729 mmHg 53%
15:00 +30°C° 0.2 mm 4 mps 729 mmHg 50%
16:00 +29°C° 0 mm 4 mps 729 mmHg 53%
17:00 +28°C° 0 mm 4 mps 729 mmHg 57%
18:00 +27°C° 0 mm 4 mps 729 mmHg 61%
19:00 +25°C° 0 mm 3 mps 730 mmHg 69%
20:00 +21°C° 0 mm 2 mps 730 mmHg 78%
21:00 +19°C° 0 mm 2 mps 731 mmHg 86%
22:00 +19°C° 0 mm 2 mps 731 mmHg 86%
23:00 +18°C° 0 mm 2 mps 731 mmHg 85%

15 July, Wednesday

Time Temperature Precipitation Wind Pressure Humidity
00:00 +18°C° 0 mm 2 mps 731 mmHg 85%
01:00 +19°C° 0 mm 1 mps 731 mmHg 85%
02:00 +19°C° 0 mm 1 mps 731 mmHg 85%
03:00 +19°C° 0 mm 1 mps 732 mmHg 85%
04:00 +19°C° 0 mm 1 mps 732 mmHg 85%
05:00 +19°C° 0 mm 1 mps 732 mmHg 85%
06:00 +19°C° 0 mm 1 mps 732 mmHg 85%
07:00 +20°C° 0 mm 1 mps 732 mmHg 77%
08:00 +22°C° 0 mm 1 mps 732 mmHg 69%
09:00 +24°C° 0 mm 2 mps 733 mmHg 60%
10:00 +25°C° 0 mm 2 mps 733 mmHg 55%
11:00 +26°C° 0 mm 2 mps 732 mmHg 50%
12:00 +28°C° 0 mm 2 mps 732 mmHg 45%
13:00 +28°C° 0 mm 2 mps 732 mmHg 44%
14:00 +28°C° 0 mm 2 mps 732 mmHg 44%
15:00 +28°C° 0 mm 2 mps 732 mmHg 43%
16:00 +27°C° 0 mm 2 mps 732 mmHg 48%
17:00 +27°C° 0 mm 2 mps 732 mmHg 52%
18:00 +26°C° 0 mm 2 mps 732 mmHg 57%
19:00 +24°C° 0 mm 1 mps 732 mmHg 62%
20:00 +22°C° 0 mm 1 mps 732 mmHg 66%
21:00 +20°C° 0 mm 1 mps 732 mmHg 71%
22:00 +19°C° 0 mm 1 mps 732 mmHg 74%
23:00 +17°C° 0 mm 0 mps 731 mmHg 77%

16 July, Thursday

Time Temperature Precipitation Wind Pressure Humidity
00:00 +16°C° 0 mm 0 mps 731 mmHg 80%
01:00 +15°C° 0 mm 0 mps 731 mmHg 82%
02:00 +15°C° 0 mm 0 mps 731 mmHg 83%
03:00 +14°C° 0 mm 0 mps 731 mmHg 84%
04:00 +15°C° 0 mm 0 mps 731 mmHg 84%
05:00 +15°C° 0 mm 0 mps 731 mmHg 83%
06:00 +15°C° 0 mm 0 mps 731 mmHg 83%
07:00 +20°C° 0 mm 1 mps 731 mmHg 74%
08:00 +22°C° 0 mm 1 mps 731 mmHg 65%
09:00 +25°C° 0 mm 2 mps 731 mmHg 57%
10:00 +26°C° 0 mm 2 mps 731 mmHg 54%
11:00 +27°C° 0 mm 3 mps 730 mmHg 51%
12:00 +28°C° 0 mm 3 mps 730 mmHg 48%
13:00 +28°C° 0.1 mm 3 mps 730 mmHg 51%
14:00 +28°C° 0.1 mm 3 mps 730 mmHg 54%
15:00 +28°C° 0.1 mm 2 mps 729 mmHg 58%
16:00 +27°C° 0.2 mm 2 mps 729 mmHg 62%
17:00 +26°C° 0.2 mm 2 mps 729 mmHg 66%
18:00 +26°C° 0.2 mm 2 mps 728 mmHg 71%
19:00 +24°C° 0 mm 2 mps 728 mmHg 76%
20:00 +21°C° 0 mm 2 mps 729 mmHg 81%
21:00 +20°C° 0 mm 2 mps 729 mmHg 87%
22:00 +19°C° 0 mm 2 mps 728 mmHg 88%
23:00 +20°C° 0 mm 1 mps 728 mmHg 89%

17 July, Friday

Time Temperature Precipitation Wind Pressure Humidity
00:00 +19°C° 0 mm 1 mps 728 mmHg 90%
01:00 +19°C° 0 mm 1 mps 728 mmHg 90%
02:00 +19°C° 0 mm 1 mps 728 mmHg 90%
03:00 +18°C° 0 mm 1 mps 728 mmHg 90%
04:00 +19°C° 0 mm 1 mps 728 mmHg 90%
05:00 +19°C° 0 mm 1 mps 728 mmHg 89%
06:00 +19°C° 0 mm 1 mps 728 mmHg 89%
07:00 +21°C° 0 mm 1 mps 728 mmHg 79%
08:00 +24°C° 0 mm 2 mps 728 mmHg 69%
09:00 +26°C° 0 mm 2 mps 728 mmHg 60%
10:00 +28°C° 0 mm 2 mps 728 mmHg 55%
11:00 +29°C° 0 mm 2 mps 728 mmHg 50%
12:00 +31°C° 0 mm 2 mps 728 mmHg 45%
13:00 +31°C° 0.1 mm 3 mps 728 mmHg 45%
14:00 +31°C° 0.1 mm 3 mps 728 mmHg 45%
15:00 +31°C° 0.1 mm 3 mps 728 mmHg 46%
16:00 +30°C° 0 mm 3 mps 727 mmHg 50%
17:00 +29°C° 0 mm 3 mps 727 mmHg 54%
18:00 +29°C° 0 mm 3 mps 727 mmHg 58%
19:00 +27°C° 0 mm 3 mps 727 mmHg 64%
20:00 +25°C° 0 mm 3 mps 727 mmHg 70%
21:00 +23°C° 0 mm 2 mps 727 mmHg 77%
22:00 +23°C° 0 mm 2 mps 727 mmHg 78%
23:00 +21°C° 0 mm 2 mps 727 mmHg 80%
Show more